GFSCGP_925_spd_093.txt.gz
Wind_Speed
1 2 6 10 8 7 4 4 9 11 15 5 8 8 10 8 6 8 9 9 8 7 8 13 13 18 24 31 32 34 37 37 38 34 31 29 31 30 30 30 29 29 27 24
3 6 11 6 6 7 9 11 13 11 12 6 9 9 9 6 5 5 7 8 9 6 8 9 10 16 22 25 31 30 35 36 33 30 29 22 28 28 29 28 29 26 24 24
7 10 4 6 7 6 8 6 8 13 6 4 4 6 6 5 4 7 7 8 8 10 11 8 9 21 26 28 33 35 35 36 33 30 27 16 14 13 16 16 18 20 20 22
6 12 9 10 6 6 7 7 10 8 3 7 4 16 5 6 9 6 9 10 11 11 10 8 8 13 29 37 33 34 35 31 33 33 30 25 20 14 17 15 13 11 13 12
10 6 8 6 11 7 10 8 9 9 6 1 4 5 5 6 7 13 8 11 11 11 9 10 10 20 31 34 38 34 33 30 27 27 25 22 17 14 12 14 16 19 10 15
12 1 7 11 13 7 2 4 4 4 1 6 8 9 8 7 8 7 7 9 10 8 9 9 18 26 24 29 34 34 30 26 24 20 17 14 14 14 15 17 18 19 19 17
16 12 5 4 6 7 3 5 3 4 3 12 5 7 9 6 9 11 12 13 10 8 7 6 8 7 16 29 36 34 30 26 22 19 15 13 14 15 15 16 16 16 16 16
4 9 6 2 7 9 8 8 4 7 5 12 4 6 5 5 10 11 10 9 8 9 7 5 4 2 7 7 13 27 28 25 23 19 17 16 15 17 19 20 19 17 15 15
2 5 4 7 1 3 2 4 6 4 2 6 4 6 6 4 8 8 12 16 14 10 5 8 7 6 10 17 26 26 26 25 25 24 23 23 22 22 22 21 20 18 17 17
2 5 7 3 6 5 5 1 3 3 4 8 4 4 5 5 7 8 11 10 11 12 8 5 4 5 13 17 14 14 26 32 31 31 30 29 29 28 27 25 24 22 19 18
4 5 5 3 5 6 4 2 3 2 3 3 4 5 5 5 5 6 8 9 7 10 11 6 2 6 9 7 16 22 25 25 33 36 34 33 34 33 32 30 27 25 21 19
2 5 6 10 8 8 6 2 4 3 3 3 3 6 7 8 6 6 11 12 15 11 9 11 8 8 7 8 9 16 28 35 31 31 38 39 39 37 37 35 32 29 26 23
5 3 4 7 2 3 6 2 4 3 1 6 4 5 3 7 11 10 9 8 9 8 17 17 10 8 6 7 7 11 11 26 34 32 25 27 34 39 40 40 37 34 31 30
8 4 6 4 6 3 7 10 5 6 3 5 7 17 14 14 14 13 8 8 7 8 13 17 7 7 7 14 11 10 9 10 17 25 31 35 37 37 44 45 43 40 37 35
2 4 9 10 12 9 12 12 12 11 11 8 15 13 8 9 10 7 6 9 12 10 6 6 6 6 6 13 14 5 4 2 8 13 24 30 34 38 36 38 44 45 42 41
6 5 4 14 13 14 16 16 13 14 14 11 6 6 1 6 7 7 8 10 10 9 10 12 12 12 11 16 22 23 22 18 15 15 14 17 25 25 29 31 32 39 43 43
5 2 1 4 3 4 6 5 2 3 3 1 3 2 9 11 12 11 12 13 8 9 12 13 14 13 17 22 24 27 31 26 23 23 22 18 17 18 23 27 32 36 38 40
5 5 3 3 3 2 2 2 6 6 1 3 2 8 10 10 12 13 15 15 6 7 12 13 13 19 25 27 31 29 29 28 26 26 26 27 28 26 26 25 27 31 34 35
10 4 1 1 2 6 2 3 4 5 6 4 5 12 14 13 13 15 6 5 12 19 17 14 22 27 29 29 34 29 29 31 30 30 28 27 26 26 27 30 30 33 31 33
4 3 3 2 2 4 3 4 6 3 7 3 6 9 11 13 11 15 8 16 20 19 21 23 35 27 27 35 32 32 32 30 26 27 27 26 25 26 26 27 29 31 33 34
1 2 4 2 3 5 2 6 7 3 3 6 7 10 11 13 15 22 20 21 20 24 24 32 27 28 32 32 33 29 28 29 30 28 29 31 32 31 33 33 33 33 32 34
2 0 1 1 3 5 1 5 3 2 5 7 12 13 16 19 21 19 20 23 22 17 22 34 23 26 28 27 28 31 31 36 36 36 35 35 35 34 32 33 36 38 36 34
1 3 3 6 4 1 2 7 3 2 8 12 15 16 19 22 19 22 24 17 18 20 22 23 24 26 32 32 30 28 33 33 35 36 35 36 39 41 40 37 34 32 35 34
5 2 1 3 0 3 11 2 2 8 13 14 16 19 19 21 21 22 17 18 18 16 18 25 24 20 23 30 31 32 34 36 35 33 35 36 35 34 35 36 35 33 32 31
4 4 2 5 4 7 3 8 12 14 16 16 17 19 21 22 24 13 18 19 17 16 23 25 21 20 26 32 32 35 35 35 32 33 35 34 33 37 39 42 42 41 44 41
2 2 2 4 3 4 10 10 15 16 17 18 21 21 19 22 20 19 18 16 15 17 23 22 25 26 30 31 31 35 35 34 32 29 30 31 33 34 35 33 34 49 49 46

GFSCGP_925_spd_096.txt.gz
Wind_Speed
2 3 6 9 7 5 2 3 7 7 13 3 8 8 12 10 6 9 8 7 8 8 8 13 16 15 10 22 31 36 35 37 38 35 29 27 30 32 34 35 32 31 26 23
4 6 9 5 4 5 5 6 8 9 11 5 9 10 10 7 6 7 7 8 9 7 8 11 21 21 16 17 22 33 35 35 39 38 36 23 32 32 31 34 34 34 32 30
7 8 5 6 4 4 5 5 5 9 5 3 4 4 6 5 4 6 8 9 8 10 11 11 10 19 20 21 23 27 37 38 39 39 34 23 21 17 25 26 29 31 30 29
6 6 7 5 6 8 7 9 10 6 1 7 4 12 7 5 10 7 10 9 10 11 9 8 10 15 23 25 28 29 33 38 41 40 39 34 29 20 27 34 31 28 29 28
9 3 3 6 13 6 9 2 8 7 6 0 4 6 5 1 7 10 10 11 11 11 9 11 10 17 25 26 29 33 35 38 39 41 42 40 33 28 23 25 22 21 22 21
8 0 6 7 5 7 5 3 2 4 2 5 8 7 4 5 8 6 7 7 9 10 10 10 17 22 27 30 30 35 39 41 41 41 41 40 35 23 21 22 20 19 18 17
7 12 6 4 7 11 4 4 4 4 3 11 6 4 7 7 9 6 8 10 11 11 10 11 10 9 17 19 21 28 31 36 39 37 36 32 27 23 21 19 19 19 18 19
3 9 6 3 7 9 7 8 5 7 4 8 4 6 6 6 3 2 0 3 7 10 11 10 9 10 11 13 16 21 24 22 32 33 30 27 24 21 19 16 16 18 19 18
2 4 4 4 2 6 3 5 3 2 2 4 5 6 6 1 1 6 8 7 8 9 8 9 10 12 20 11 15 20 20 24 31 31 28 26 22 22 19 14 14 16 17 16
3 4 3 7 2 6 6 2 1 2 5 7 4 4 6 6 4 6 9 9 9 8 10 7 7 10 20 14 12 16 19 25 26 27 27 28 27 25 18 18 15 17 18 17
1 3 3 3 5 8 2 2 2 1 3 6 11 5 5 4 2 6 9 9 9 9 9 8 7 12 19 19 18 11 12 16 22 22 26 26 29 26 25 23 22 21 20 19
3 2 4 10 12 11 12 17 12 6 4 4 2 6 1 2 2 5 9 13 11 8 9 9 6 9 13 20 19 25 26 27 29 22 23 26 21 21 24 28 28 27 25 23
5 2 4 6 1 3 2 3 3 0 1 4 3 5 2 8 14 12 10 12 11 11 11 9 11 7 11 14 17 20 19 19 22 25 29 29 28 25 28 31 31 32 30 30
6 3 6 10 3 6 7 9 9 6 3 4 8 19 15 6 6 8 8 10 11 10 9 10 8 9 11 18 21 22 16 12 13 15 18 25 31 36 39 40 38 37 37 36
5 4 6 6 13 15 17 19 16 15 14 8 17 17 15 4 5 6 6 6 10 10 7 7 9 9 12 16 18 21 22 23 20 14 13 17 24 27 31 32 35 40 42 42
8 3 5 11 16 17 15 17 15 14 15 14 16 18 2 5 5 6 6 12 15 12 9 8 11 12 13 18 17 19 23 26 26 24 25 21 19 17 21 27 30 34 38 40
5 5 1 6 4 4 7 7 9 3 3 3 4 1 5 8 11 12 12 17 16 13 7 10 12 13 14 15 18 23 22 22 24 25 27 27 25 24 20 20 28 34 36 35
6 6 4 4 4 3 1 2 5 2 5 5 7 3 7 8 9 11 14 15 12 8 11 15 15 19 22 23 29 30 26 27 26 25 24 23 24 28 29 28 27 26 30 33
13 5 3 2 3 5 2 0 2 3 5 3 3 7 10 12 10 16 6 3 9 16 17 17 27 29 22 28 35 30 28 29 29 29 29 28 26 28 28 29 30 31 30 29
7 5 3 1 3 3 3 3 3 1 9 8 5 7 10 8 11 13 14 19 20 17 21 24 32 34 27 32 31 31 32 31 28 28 29 30 29 30 30 30 29 32 30 29
4 3 7 5 3 5 2 2 3 1 3 5 3 9 11 11 11 18 21 23 19 19 27 36 29 24 31 35 34 30 30 29 33 31 28 28 28 28 27 26 26 28 30 28
1 1 2 2 2 5 1 3 1 2 3 5 11 15 18 19 19 21 24 23 23 22 22 26 28 29 33 27 27 28 28 35 36 35 35 34 32 32 34 35 33 31 28 26
1 3 2 6 5 2 0 5 7 2 6 12 15 16 17 21 22 21 22 22 22 21 18 29 27 26 29 30 27 27 35 33 32 31 31 32 34 34 34 33 31 29 31 30
3 2 1 4 2 2 6 1 2 5 10 14 15 16 19 21 20 23 18 21 19 14 19 25 23 19 24 29 30 33 34 34 33 32 32 33 33 34 34 33 32 31 30 29
4 2 1 4 3 7 1 5 10 15 15 16 18 18 19 20 21 18 20 21 15 17 22 23 21 20 26 30 32 34 34 32 31 32 33 33 32 33 33 35 35 34 37 35
3 3 2 4 4 4 7 6 13 15 16 17 18 18 19 19 20 18 21 19 16 17 24 21 25 25 28 29 31 34 33 32 31 30 28 28 32 33 32 31 31 44 49 46

GFSCGP_925_spd_102.txt.gz
Wind_Speed
13 11 14 14 11 12 8 11 13 11 9 11 15 15 13 13 14 14 13 13 13 13 11 12 10 8 9 12 10 10 16 20 19 20 21 23 25 25 26 28 28 28 29 27
8 15 14 9 9 10 12 14 15 13 11 9 15 17 15 13 17 16 16 15 15 14 14 12 14 14 11 14 14 13 14 19 23 22 22 24 23 24 25 25 24 27 27 27
17 2 4 9 12 14 15 16 14 13 13 13 16 20 20 18 18 14 16 18 17 16 14 12 11 11 13 13 16 17 16 14 18 24 23 21 22 19 24 25 26 28 30 28
12 16 16 15 13 13 16 12 13 15 14 14 10 16 17 17 17 14 18 17 14 12 10 9 11 14 15 15 14 14 17 17 16 17 23 25 26 25 27 26 28 27 30 29
6 7 6 14 16 13 14 9 10 12 15 17 18 13 15 18 12 14 13 13 8 6 5 7 10 14 17 17 16 15 14 15 16 17 22 24 28 30 30 30 27 28 27 29
17 6 8 11 1 8 8 11 16 17 14 17 19 19 16 13 13 14 10 8 2 4 6 7 10 13 15 17 15 13 13 14 15 16 20 25 27 28 29 29 27 27 29 26
17 18 18 11 13 14 13 13 12 15 14 16 17 13 11 13 15 13 12 6 1 4 6 8 9 10 12 13 13 14 14 15 13 14 18 23 28 30 30 30 30 27 28 26
12 12 9 4 14 17 16 11 12 21 16 19 21 21 12 3 3 5 2 6 5 6 7 8 10 12 14 13 14 15 15 15 15 15 17 20 24 29 31 31 31 30 29 25
8 12 3 3 6 7 11 15 13 18 21 20 19 25 18 15 13 8 7 4 6 9 11 12 11 11 13 15 15 14 15 15 14 14 15 17 20 24 28 27 25 28 24 20
7 9 16 21 13 17 15 14 10 9 9 17 11 11 8 4 5 4 5 4 7 10 14 15 15 17 16 15 15 15 14 12 14 13 11 12 13 17 20 21 23 24 22 17
9 11 16 15 14 15 11 13 14 12 14 11 17 11 5 5 2 3 5 6 10 14 14 15 14 17 19 18 16 13 15 14 12 14 13 9 9 10 11 18 22 17 14 15
7 6 11 19 17 14 15 17 17 7 11 11 12 13 14 5 5 3 9 13 16 14 14 14 13 14 14 13 15 15 13 13 14 12 12 13 10 10 11 11 10 11 11 13
3 4 7 7 10 8 10 10 11 15 1 14 15 11 8 3 9 13 16 14 12 11 12 12 12 12 13 15 15 16 14 13 14 16 12 9 13 13 14 12 8 9 9 10
3 8 13 13 14 11 12 15 11 10 4 14 17 22 15 14 17 15 13 12 11 11 13 13 12 14 15 17 18 18 19 17 17 16 14 10 11 13 17 15 12 12 10 11
7 5 13 16 16 17 18 18 21 22 15 13 16 22 21 19 17 12 11 11 13 15 15 14 14 14 17 21 21 21 21 20 20 20 18 19 9 15 12 15 22 15 13 13
9 5 8 13 15 13 18 20 21 22 23 23 23 23 18 7 10 11 12 14 14 17 19 18 17 16 17 23 24 25 25 23 23 22 23 20 19 18 18 18 17 14 23 16
3 5 4 12 9 11 15 12 11 12 14 14 16 14 14 14 12 14 16 17 19 20 18 19 17 19 24 26 27 27 27 25 27 27 26 25 22 22 22 19 17 15 21 20
6 11 6 8 7 10 3 3 4 7 8 7 11 14 12 13 15 17 18 21 21 19 21 20 19 25 28 29 30 31 31 30 30 31 29 27 25 25 24 22 21 21 21 21
19 12 4 4 7 14 16 3 4 7 11 10 11 10 12 18 22 23 20 19 21 24 23 22 30 31 30 32 33 32 31 34 37 35 30 29 29 28 27 27 26 26 26 27
13 12 7 5 4 4 4 5 3 7 9 7 8 15 18 19 16 17 20 24 26 25 30 26 30 34 32 33 33 34 31 27 29 34 38 38 37 33 31 30 29 28 28 28
3 2 10 9 5 7 3 2 3 5 3 11 14 18 20 19 18 26 25 22 24 27 31 36 32 27 27 36 34 31 28 29 34 32 31 32 33 34 33 31 31 30 30 29
4 3 4 6 5 7 4 3 5 12 14 14 19 20 20 21 22 23 26 24 21 26 27 35 29 24 31 37 31 27 29 36 31 28 27 29 30 29 29 30 31 31 29 29
4 3 2 5 2 2 4 7 10 9 13 19 20 20 19 23 24 25 25 23 26 26 27 29 29 28 32 36 29 24 31 30 28 26 27 28 28 28 29 29 27 26 27 29
3 4 6 8 2 4 8 9 6 11 17 19 20 20 20 23 24 25 22 21 23 21 18 31 21 23 27 31 30 31 32 29 28 28 29 29 29 29 30 30 28 28 27 26
9 11 9 12 9 10 5 8 15 18 18 20 20 21 22 22 23 24 22 24 21 21 25 25 25 23 27 32 32 31 28 27 28 28 28 29 28 29 29 32 31 30 32 30
6 6 5 3 8 7 13 16 19 18 21 20 20 22 21 23 24 25 21 20 19 18 28 26 28 28 28 29 31 31 30 28 28 27 26 26 25 27 28 28 28 38 40 35

GFSCGP_925_spd_105.txt.gz
Wind_Speed
15 13 15 17 17 18 17 13 16 12 7 8 12 16 17 15 15 14 15 16 15 15 14 15 17 11 12 10 7 8 12 18 17 21 22 23 25 25 25 27 27 27 27 29
16 16 17 16 13 11 13 16 18 17 14 13 16 20 17 17 15 17 17 17 16 17 15 14 16 15 15 13 13 12 12 12 17 22 23 24 23 26 26 25 26 27 28 30
18 12 5 10 15 14 17 17 17 17 14 10 16 19 19 18 23 21 18 18 16 16 16 14 11 11 9 9 14 15 14 14 13 18 21 22 23 22 23 26 25 27 30 30
16 16 16 13 13 12 17 17 17 15 15 15 16 16 16 12 14 13 14 15 16 18 17 12 4 7 11 14 16 15 13 13 15 16 19 24 24 25 29 29 27 28 30 31
16 15 12 17 20 17 18 15 12 15 16 18 19 13 15 17 16 16 13 11 12 6 5 4 5 8 12 15 16 17 15 14 14 14 16 20 22 26 27 28 26 25 25 31
16 12 6 12 9 5 13 10 14 16 16 18 20 19 17 16 17 11 9 14 6 5 3 3 7 10 13 12 14 14 12 13 14 15 17 18 22 22 23 24 26 28 31 33
17 20 19 16 15 14 13 13 12 15 15 18 20 20 15 7 9 10 13 9 10 4 3 4 7 9 9 11 7 10 11 12 13 15 16 17 19 20 23 24 27 28 28 35
14 14 11 11 16 16 19 18 13 22 18 18 20 18 14 16 4 4 5 2 2 4 2 4 8 7 12 10 13 13 14 13 13 14 15 17 18 21 23 26 28 29 32 41
10 17 8 12 13 12 16 16 15 15 19 18 18 26 22 24 18 13 13 12 5 4 6 9 10 10 11 13 13 14 15 16 17 16 15 15 17 20 24 26 27 28 35 39
2 11 13 15 17 18 16 12 8 8 6 16 15 16 7 12 11 5 7 7 5 5 10 11 10 13 11 12 14 12 11 17 19 15 16 17 15 18 20 23 25 28 28 32
8 12 16 16 19 20 15 12 17 16 14 10 15 12 7 6 4 6 5 4 5 9 11 12 13 17 19 18 15 13 12 12 17 15 15 16 17 16 19 20 23 24 23 26
5 4 13 21 20 19 15 19 15 5 10 13 11 8 11 6 11 6 8 8 11 13 14 14 14 18 17 17 14 14 13 14 14 14 17 15 17 18 13 13 16 19 22 22
3 4 8 13 15 14 14 13 14 13 13 19 14 12 4 6 11 8 11 17 14 11 12 10 12 11 14 19 14 14 17 19 20 16 16 18 15 15 17 12 14 13 14 20
3 13 14 14 19 5 8 16 17 13 9 15 19 24 22 10 12 13 19 15 13 12 12 13 13 13 15 17 20 19 20 21 22 21 19 20 17 17 15 16 11 11 14 14
4 9 16 20 21 21 23 21 20 20 21 20 21 23 21 18 21 17 10 13 14 14 14 14 16 16 18 20 21 23 25 24 23 24 24 22 21 21 20 15 21 22 32 27
9 7 15 20 18 20 22 22 22 23 22 19 23 25 22 22 7 12 11 14 17 16 16 18 20 15 18 21 23 27 27 27 27 27 25 26 25 25 23 22 12 18 32 36
5 3 7 13 12 13 14 17 18 17 14 16 16 14 7 9 10 12 13 15 18 19 21 21 18 18 23 26 26 27 29 28 28 30 29 28 29 28 26 24 22 20 26 38
8 14 4 9 11 11 9 3 5 6 11 11 12 12 12 11 14 18 20 22 22 20 21 22 21 26 30 26 26 28 29 27 27 29 34 36 31 32 29 27 25 22 22 31
19 11 3 5 9 15 21 6 2 5 10 11 11 11 15 19 21 21 18 18 22 24 23 24 32 33 34 32 30 33 30 28 30 33 34 37 39 38 34 28 26 23 24 24
7 9 5 9 7 8 6 1 6 7 9 10 12 13 17 19 16 16 25 25 25 25 31 29 32 33 31 29 33 28 27 26 30 34 34 33 33 33 34 29 25 25 25 27
4 4 8 11 8 7 5 2 4 7 5 12 12 16 19 18 16 23 23 24 23 24 26 29 30 29 30 27 30 27 26 27 33 34 32 29 31 30 30 29 29 29 27 28
7 4 5 7 5 8 11 5 5 9 13 15 17 19 20 22 23 23 25 25 25 24 28 34 29 31 32 29 30 31 27 33 38 31 28 29 29 28 28 30 27 26 28 28
4 3 2 4 4 4 4 10 7 7 11 16 19 21 21 24 24 25 23 24 23 21 24 30 31 30 38 35 28 25 32 34 30 28 27 27 27 30 28 28 29 28 25 24
5 5 4 7 5 6 14 4 6 11 14 18 19 21 21 24 25 25 24 22 20 19 23 32 30 30 22 28 30 29 31 30 28 28 26 26 26 27 27 27 27 26 26 24
9 8 13 16 14 11 4 8 12 15 17 19 20 20 22 22 24 25 24 23 17 21 28 28 26 26 30 32 31 30 27 25 27 27 26 28 27 27 28 30 29 29 33 30
5 8 6 7 5 7 10 14 16 16 19 18 20 22 22 22 24 25 23 20 19 17 29 27 29 29 29 31 31 31 28 27 28 28 26 25 25 26 27 26 27 35 39 32

GFSCGP_925_spd_108.txt.gz
Wind_Speed
14 11 14 17 18 19 20 21 16 14 13 15 18 14 14 12 15 15 16 16 15 13 13 10 13 13 11 6 2 5 10 14 14 10 16 19 21 24 26 28 28 29 30 31
14 16 17 18 18 18 18 18 17 17 19 16 16 17 15 18 19 17 16 13 13 14 13 12 13 14 13 13 13 9 10 8 12 18 16 19 21 26 25 27 29 27 32 35
17 18 16 18 16 18 16 15 16 19 19 19 17 16 16 20 19 18 17 14 13 12 11 11 10 12 15 11 8 4 10 11 10 13 20 19 25 26 20 26 35 34 32 34
16 18 19 12 12 13 19 16 19 19 17 14 17 16 18 19 20 22 21 19 16 13 11 9 10 8 10 6 7 8 10 8 8 12 15 20 20 18 25 26 22 31 41 42
15 16 16 15 16 19 18 17 17 19 16 16 19 13 15 16 17 18 16 16 14 13 9 10 9 12 9 7 8 10 13 17 10 5 11 15 17 19 21 23 30 35 30 38
17 21 16 9 12 10 8 14 18 15 15 16 19 18 17 17 18 17 17 14 13 9 13 8 9 4 2 6 7 9 15 14 12 9 11 14 16 19 20 22 23 21 31 26
16 17 17 17 14 15 14 12 10 14 14 15 21 18 15 14 12 10 7 7 14 11 8 6 6 2 5 5 5 9 8 13 14 15 15 15 15 16 18 22 23 25 25 24
10 10 12 9 11 12 16 11 10 19 15 18 22 14 14 15 16 15 10 5 13 10 7 6 2 2 3 6 4 6 8 15 13 18 19 15 13 16 19 19 23 27 27 28
7 16 13 8 15 16 11 11 14 16 15 15 15 23 20 10 13 18 9 7 7 9 8 4 4 5 6 8 6 7 9 9 11 20 24 20 17 18 19 22 27 30 29 28
7 13 11 15 12 18 12 12 6 4 5 13 13 13 10 14 12 9 7 2 5 6 2 4 6 7 8 10 8 13 11 9 8 14 18 17 21 24 21 20 22 25 27 30
9 10 13 14 14 18 16 11 11 11 12 7 11 10 2 10 13 13 4 4 6 6 8 10 11 12 13 18 19 21 12 10 12 14 14 16 18 23 26 23 21 23 25 26
4 4 10 17 19 21 19 19 17 6 10 10 12 8 14 9 7 7 10 8 5 7 10 11 11 14 13 15 15 18 14 8 12 15 18 14 13 18 24 25 24 21 24 23
7 3 7 9 12 8 7 13 11 12 7 8 10 11 7 5 10 14 13 12 13 14 16 12 10 12 13 15 14 15 17 16 15 17 21 23 16 17 21 23 24 25 21 16
5 9 13 13 17 18 18 13 13 12 3 5 13 18 16 12 11 15 14 9 16 14 13 13 12 11 15 15 15 16 18 18 19 20 21 21 23 21 20 24 27 22 25 23
3 9 15 16 17 19 23 24 21 20 22 18 22 21 21 18 17 12 15 11 10 14 13 14 14 11 12 19 17 18 19 17 19 22 23 23 24 24 24 24 27 26 26 30
3 9 13 19 19 21 24 24 23 22 23 22 23 22 19 14 12 7 7 10 12 15 15 14 14 15 11 14 18 21 21 19 19 22 24 24 23 25 25 28 27 29 26 29
5 3 6 14 18 13 15 18 19 13 17 20 15 11 11 9 12 11 11 13 16 17 18 17 16 16 19 21 21 20 24 20 23 25 25 25 25 28 30 27 27 28 28 26
11 11 5 8 13 13 10 8 18 10 9 12 12 10 11 9 11 14 15 14 15 18 20 18 17 22 29 31 28 23 24 26 24 24 24 24 26 28 33 35 33 29 28 25
16 11 3 4 9 16 21 7 3 6 8 11 7 11 13 16 19 18 14 20 18 17 17 18 24 24 26 29 29 28 31 30 29 28 26 27 29 32 30 33 34 35 32 27
13 14 6 7 6 6 7 1 4 4 10 11 11 13 16 17 14 14 20 21 20 18 22 22 25 23 26 26 26 28 27 27 27 28 28 28 28 29 29 33 32 28 28 29
3 3 9 8 7 9 4 3 12 6 4 10 12 14 16 15 13 19 20 19 18 21 23 27 26 20 23 29 30 30 31 27 25 26 28 28 28 30 33 31 28 27 26 26
8 5 5 7 6 7 11 12 5 3 7 11 13 15 17 18 19 20 20 20 20 21 24 28 22 23 33 34 37 27 27 35 35 31 31 28 30 32 31 28 28 29 27 25
4 4 1 4 3 3 6 9 5 6 10 11 15 16 17 20 20 21 20 20 19 21 21 22 23 30 33 31 30 33 29 28 34 32 31 29 30 30 29 28 26 25 25 22
4 3 3 4 2 10 8 3 5 8 12 15 15 18 18 20 21 21 19 19 19 18 21 28 27 24 28 30 30 31 32 29 30 30 30 28 27 27 28 27 25 24 23 23
11 9 10 14 7 16 1 5 12 13 15 16 17 18 19 20 21 20 19 19 18 20 24 24 27 27 30 32 31 31 31 31 30 29 26 26 27 27 27 28 26 25 26 28
10 5 4 4 6 5 11 11 14 14 15 16 18 19 19 19 19 20 18 17 19 20 26 27 29 28 32 33 32 31 30 28 27 26 25 24 24 24 24 23 25 31 36 35

GFSCGP_925_spd_111.txt.gz
Wind_Speed
6 3 6 11 11 13 12 12 12 10 8 5 5 7 9 9 5 7 8 9 10 10 10 12 17 23 14 18 14 10 7 6 4 3 22 25 24 26 31 33 35 32 36 36
5 7 11 12 13 12 15 15 14 7 9 7 8 8 8 8 6 6 8 10 10 9 9 9 16 18 20 21 15 14 9 4 4 5 9 16 20 26 30 33 36 41 35 36
8 10 14 17 14 12 8 6 7 5 10 10 8 9 8 5 4 8 10 9 8 12 11 9 10 18 19 16 15 13 8 8 7 6 9 12 16 22 19 29 32 37 36 32
9 12 15 13 7 7 7 10 12 10 6 9 3 12 7 8 10 14 15 13 11 10 9 7 9 14 23 19 15 16 14 6 4 4 6 9 12 16 23 23 19 25 33 38
7 6 9 12 10 7 6 7 9 8 7 2 6 4 5 7 12 14 11 21 16 13 8 14 11 18 18 16 18 14 12 15 14 7 6 9 12 20 26 30 31 30 15 27
8 9 5 7 14 9 5 5 8 6 2 8 6 8 8 13 13 8 5 5 13 15 14 11 17 19 18 15 16 14 15 12 10 9 9 10 12 15 21 29 31 30 31 21
7 9 8 7 7 8 5 4 4 4 4 8 9 11 8 5 7 4 7 10 11 12 11 9 9 9 13 10 12 10 8 7 8 8 9 14 17 14 16 21 28 33 32 30
3 3 4 6 6 6 7 0 3 5 3 4 10 5 5 6 9 8 8 10 9 10 8 9 8 7 8 9 9 7 5 1 4 7 8 12 16 16 20 25 28 31 34 35
1 4 11 8 10 4 6 5 2 3 5 3 4 9 11 6 9 10 15 14 10 10 9 8 7 10 7 4 5 5 4 7 8 9 11 14 13 15 18 20 24 30 31 33
5 4 4 6 10 7 3 6 4 3 1 5 5 6 2 8 8 12 13 11 11 8 8 7 6 8 9 12 10 8 10 10 11 10 11 13 18 20 21 20 22 28 29 32
2 2 4 7 3 6 5 4 3 4 5 5 2 5 5 2 8 10 12 13 7 5 5 4 4 5 3 5 9 9 8 6 8 7 8 11 16 19 19 25 24 24 27 29
5 3 3 6 13 15 10 6 4 3 3 4 3 10 10 6 7 6 8 10 7 8 6 6 5 4 5 8 10 11 13 3 4 5 6 8 11 13 14 18 23 25 28 30
4 2 3 7 6 6 5 2 4 3 1 4 5 4 8 3 3 2 8 9 5 5 8 8 5 5 8 10 11 9 8 9 12 8 9 11 12 14 17 20 23 25 27 31
6 1 5 5 6 8 11 10 11 7 4 4 9 11 16 15 7 10 8 8 1 5 6 6 5 5 10 15 16 18 18 15 17 14 13 14 15 17 18 22 26 28 28 30
6 4 5 8 12 14 15 16 16 15 13 10 17 15 17 14 5 4 3 6 5 6 7 7 6 7 12 16 22 23 22 21 19 19 17 20 22 24 26 26 28 30 30 32
3 2 4 9 13 14 18 17 15 18 18 20 18 14 9 5 8 9 7 5 5 8 10 11 11 11 10 15 18 21 23 21 22 22 23 25 26 23 20 19 20 21 22 29
6 3 1 5 8 14 11 13 12 7 12 2 4 3 10 8 8 5 7 8 7 8 7 6 7 8 14 18 17 16 20 21 20 23 24 23 22 22 24 25 24 22 23 26
6 5 2 4 7 4 6 10 2 6 12 12 4 5 6 4 7 7 7 6 7 7 6 7 7 13 20 18 24 24 24 24 24 25 27 28 28 28 28 28 26 26 27 25
9 5 2 3 3 10 11 5 4 3 2 1 7 7 7 8 6 5 11 10 6 7 6 9 20 22 21 18 15 17 20 20 23 29 32 30 28 30 30 28 26 25 27 28
11 8 6 3 3 3 2 8 9 3 2 5 5 6 8 9 6 7 8 8 9 9 13 17 23 28 21 11 16 20 23 29 33 39 36 30 33 32 31 27 24 24 27 29
2 3 8 6 3 6 6 8 5 0 1 6 5 5 7 4 4 7 9 9 11 16 21 26 24 13 16 22 24 28 32 29 35 30 28 32 32 26 26 27 27 26 28 31
3 2 4 4 4 6 3 5 0 3 5 5 5 6 6 6 8 8 11 13 13 13 18 16 20 20 19 27 30 32 29 33 31 35 36 31 29 29 28 28 27 28 29 28
2 4 2 3 4 6 5 3 3 4 5 4 7 4 6 7 7 11 13 12 13 12 19 22 22 23 31 32 33 27 33 33 33 31 31 27 24 26 25 25 26 28 28 25
5 5 3 5 4 7 7 7 6 9 5 7 5 5 7 8 11 13 11 11 14 17 18 24 26 25 31 31 31 30 32 32 31 30 29 29 28 29 29 27 27 26 25 22
4 1 4 11 3 4 5 2 5 9 8 7 6 6 7 9 10 8 11 15 11 17 24 27 24 29 31 30 30 30 31 30 29 28 27 26 26 25 23 23 24 24 28 26
5 3 2 3 3 7 10 4 5 7 5 6 7 8 7 7 10 10 14 11 15 21 28 23 31 30 31 32 32 32 29 28 26 25 24 23 22 22 22 23 23 29 32 30

GFSCGP_925_spd_114.txt.gz
Wind_Speed
2 4 5 8 7 7 5 5 8 11 11 4 6 7 9 10 5 7 8 7 9 10 11 17 14 19 25 30 32 33 29 25 18 18 23 24 22 20 25 27 26 30 30 38
2 7 11 9 7 7 8 10 12 8 10 7 4 7 5 5 5 8 9 8 9 7 8 9 16 19 32 35 38 36 33 26 18 12 11 15 16 18 22 23 24 28 30 35
6 9 10 9 10 8 9 9 6 8 6 2 3 6 5 7 4 6 6 8 7 12 13 10 10 11 23 26 26 23 22 18 15 12 11 8 9 11 12 15 15 12 14 28
6 15 11 7 8 8 15 12 8 5 1 5 2 5 4 6 8 6 10 9 10 11 11 11 7 12 23 20 20 19 17 15 13 11 10 9 8 8 11 12 15 19 17 18
7 3 2 3 3 3 8 6 6 1 1 3 7 2 7 5 9 10 10 11 13 16 9 10 11 19 28 30 28 25 21 18 15 11 7 3 2 6 11 16 18 19 19 17
5 3 3 3 7 3 5 1 5 4 3 2 5 4 2 5 5 8 9 7 10 3 10 8 16 25 24 24 25 24 21 17 13 10 7 5 6 8 9 12 16 21 22 20
4 4 2 4 2 7 9 6 3 4 3 5 3 3 7 3 4 5 4 6 12 12 10 8 9 9 19 21 20 18 16 15 10 5 2 2 4 6 9 11 13 17 20 23
3 1 3 2 4 1 2 4 4 4 3 4 5 4 4 3 5 11 11 9 12 10 8 7 6 9 13 14 14 12 9 8 7 7 7 10 8 7 8 11 12 14 18 20
4 4 2 11 5 3 4 4 4 3 3 2 4 5 6 4 8 10 10 9 9 8 8 7 6 10 11 8 7 7 7 7 10 11 12 13 14 13 13 14 15 15 17 20
1 1 5 6 5 4 4 3 1 3 2 4 4 4 5 4 7 9 8 8 9 9 9 7 6 7 8 8 5 1 3 6 10 16 15 15 15 14 15 17 18 18 17 19
3 4 5 4 2 2 5 4 3 3 4 4 2 5 4 6 5 6 4 6 6 6 7 6 5 2 1 1 4 5 6 6 8 14 15 15 15 17 17 17 17 16 15 15
3 4 0 4 7 5 3 1 3 4 3 2 2 7 3 4 7 8 6 6 8 7 7 4 5 11 9 13 14 14 13 10 10 12 14 15 15 15 16 18 18 17 17 16
0 3 3 8 5 6 6 3 3 4 3 6 4 4 5 13 11 9 12 15 6 4 3 3 3 5 9 14 18 18 16 13 13 14 16 19 20 20 19 20 20 19 18 19
7 2 5 5 4 1 5 7 5 6 4 4 11 16 16 18 13 10 14 8 7 5 6 7 7 5 9 13 17 19 20 18 18 17 16 16 18 20 22 23 23 24 25 23
5 4 3 4 6 5 8 12 13 9 9 10 11 16 16 8 2 3 1 5 8 6 7 6 4 4 7 12 20 23 20 18 19 21 23 24 25 25 24 23 22 22 19 16
3 3 3 4 8 10 13 14 13 15 13 13 14 13 4 2 1 5 7 6 6 5 5 5 5 6 8 14 19 23 19 19 21 24 26 28 29 30 30 28 24 23 22 21
4 5 3 4 4 7 7 6 7 6 2 3 2 1 3 5 6 4 3 4 5 7 6 7 7 8 15 20 24 25 23 24 22 25 27 25 26 27 28 31 33 32 25 21
6 5 3 3 4 2 5 6 2 8 3 2 4 1 2 3 4 6 1 0 6 7 6 7 7 13 21 27 28 26 18 18 20 20 20 22 24 26 28 31 33 31 32 31
8 5 3 3 3 6 7 3 3 1 4 3 2 3 3 6 6 5 3 4 6 5 6 10 17 24 26 24 18 17 25 26 24 26 29 32 34 37 40 39 33 27 28 31
7 4 3 3 4 5 2 2 2 2 3 3 3 3 6 5 3 4 5 5 6 10 15 18 24 20 14 26 26 26 23 26 31 33 34 32 33 33 30 29 27 30 30 28
3 1 7 6 5 5 3 4 1 3 5 3 6 6 4 2 5 7 6 6 8 13 16 21 16 20 21 23 23 24 29 29 36 36 28 34 30 33 37 37 35 26 21 19
5 4 3 2 3 6 3 2 3 5 3 6 5 4 4 5 7 7 8 9 9 9 15 21 16 19 26 29 26 28 32 34 33 35 33 32 30 29 29 29 25 24 26 23
1 5 2 4 3 5 8 6 2 3 4 4 4 4 3 5 5 8 8 7 6 11 13 18 23 28 30 26 27 31 34 34 34 33 31 30 29 28 26 26 25 22 23 20
4 3 3 1 3 7 6 3 3 3 5 6 3 1 3 5 7 9 7 7 9 8 16 25 26 26 26 29 32 30 31 33 32 31 29 28 27 26 26 25 24 24 24 21
5 3 3 4 5 5 6 4 6 7 7 3 3 3 5 6 7 8 6 7 7 15 23 26 25 23 29 32 32 31 30 30 29 29 27 26 24 24 23 25 24 23 26 24
4 6 4 5 6 5 6 7 8 6 1 3 4 6 6 5 9 6 6 8 13 19 25 24 25 28 32 31 32 31 28 27 28 27 24 22 22 22 21 22 22 26 32 30

GFSCGP_925_spd_117.txt.gz
Wind_Speed
4 4 5 8 6 4 2 3 5 5 3 2 8 6 8 9 5 9 8 8 10 10 13 22 22 12 17 24 31 31 31 31 30 31 28 24 24 19 16 16 16 13 17 19
5 5 7 4 3 4 4 3 6 9 6 6 7 8 9 6 5 6 8 8 10 7 8 9 13 15 25 30 34 34 34 34 32 29 24 22 27 22 18 10 7 9 9 12
6 5 4 3 3 3 5 4 6 8 6 2 3 6 5 5 5 7 4 5 6 8 9 10 9 16 22 29 34 37 38 36 30 22 20 19 15 9 6 1 3 6 8 9
5 6 4 4 6 7 7 8 14 8 2 4 2 5 5 5 8 5 9 9 9 9 9 11 9 12 26 28 30 33 31 26 23 19 16 14 7 5 6 4 4 7 9 10
5 2 4 3 6 6 8 4 8 7 5 3 2 2 7 4 7 7 9 10 10 10 9 9 9 14 18 22 23 23 25 22 18 14 11 10 10 8 6 4 4 6 7 9
5 2 2 4 1 2 3 3 8 5 3 0 4 4 4 3 3 6 6 8 9 4 7 9 12 12 16 23 23 23 22 19 16 14 12 10 9 7 5 3 2 5 7 9
3 3 3 2 3 6 6 6 2 3 2 5 1 1 8 3 4 3 4 9 9 8 9 11 11 9 15 16 20 20 18 16 13 9 7 5 4 5 5 5 4 2 3 6
4 2 1 2 4 4 2 6 5 6 4 3 4 4 3 4 5 6 11 7 9 10 8 8 7 10 12 12 12 11 10 11 9 8 7 5 6 7 5 6 6 4 2 4
4 2 1 6 1 3 2 3 3 5 2 3 4 6 1 5 8 8 8 9 9 9 9 9 8 6 8 6 4 3 3 4 7 9 11 13 15 16 15 11 9 8 7 7
2 2 2 2 2 6 4 5 3 3 4 4 4 4 5 2 5 7 8 6 7 7 6 7 7 9 6 5 5 4 6 10 12 15 19 21 19 17 15 14 14 14 11 11
3 3 3 1 3 2 5 3 5 3 3 5 1 5 3 5 2 5 6 7 8 8 10 4 4 1 4 6 9 13 14 13 14 16 18 20 20 19 18 20 21 21 19 19
2 4 0 3 6 4 2 3 3 4 4 1 1 5 4 5 4 3 8 8 7 8 9 6 3 3 5 10 10 14 12 12 11 11 12 15 18 18 20 22 24 23 24 23
4 2 2 6 5 5 6 2 4 4 3 5 4 4 6 9 14 9 12 11 7 4 3 4 6 6 9 11 12 14 16 16 15 16 16 15 15 15 17 19 21 22 22 23
6 3 5 5 3 3 3 3 4 5 3 4 6 7 8 11 16 16 14 5 6 7 5 3 4 4 7 10 14 18 21 22 22 21 22 22 23 23 23 24 25 25 25 27
4 3 3 4 4 3 5 10 6 8 7 8 3 13 11 7 8 6 5 5 5 5 3 2 3 5 8 11 17 21 23 25 24 24 24 26 28 30 31 31 30 29 27 27
4 2 2 3 5 5 7 10 9 11 12 13 10 15 5 0 5 4 5 5 6 7 7 7 7 7 10 16 20 24 28 31 28 25 30 32 31 31 32 32 31 32 31 31
3 5 3 4 3 6 7 6 7 5 6 5 6 7 0 2 5 3 1 4 5 7 7 7 7 7 15 21 23 27 31 29 26 25 26 26 25 26 27 29 30 29 31 32
6 6 3 2 2 3 5 4 5 4 1 1 2 1 2 2 4 5 6 2 5 6 7 8 8 15 22 26 26 25 23 25 29 28 28 29 29 30 31 32 32 33 32 33
5 5 2 3 3 6 5 0 1 1 4 5 3 4 5 5 6 5 3 3 5 6 7 14 22 24 25 26 25 30 27 30 31 30 30 31 29 33 35 31 28 35 35 34
4 3 4 3 3 5 4 2 2 1 5 5 3 4 4 3 4 4 5 6 8 14 19 19 21 23 25 28 28 30 31 29 27 29 30 26 33 30 23 29 31 23 28 26
3 1 7 5 4 5 4 3 1 3 5 3 2 5 5 4 5 4 7 8 11 15 16 20 23 20 24 31 29 26 29 27 29 33 33 28 30 32 30 29 30 33 29 30
5 5 3 2 3 7 6 5 2 4 3 4 4 6 6 7 7 7 8 8 8 8 16 20 17 22 27 28 26 27 25 29 34 31 29 31 30 28 28 27 28 27 28 26
1 5 4 7 5 2 3 5 7 4 4 4 4 6 6 5 6 8 7 8 7 12 15 21 21 27 29 27 25 24 32 32 32 31 31 29 29 28 27 27 27 24 25 23
2 3 3 1 4 7 8 7 5 5 7 6 5 4 2 6 7 8 7 8 6 12 15 22 23 24 26 26 25 29 31 31 30 30 30 28 27 27 27 25 24 22 20 18
5 2 2 4 6 5 6 5 6 8 6 6 3 2 4 6 8 7 8 7 8 15 21 24 23 24 28 29 29 29 29 28 28 28 29 29 28 26 26 25 25 22 21 22
4 6 4 5 8 5 7 6 6 6 5 3 2 6 6 5 8 7 6 9 13 17 24 23 25 28 29 30 30 30 28 26 26 28 26 25 25 24 23 22 23 24 28 27

GFSCGP_925_spd_123.txt.gz
Wind_Speed
9 9 16 19 11 5 7 5 9 4 4 1 6 5 7 1 6 5 5 7 9 8 8 10 9 11 17 23 26 26 23 24 20 20 20 20 25 21 19 19 20 21 20 18
9 12 9 9 7 4 4 4 5 2 3 5 3 6 7 7 4 2 6 8 10 11 10 8 9 6 4 8 18 19 23 24 25 20 17 12 17 15 14 14 17 16 16 15
13 5 10 7 6 7 4 7 5 6 1 3 1 4 4 2 2 1 4 6 7 11 13 15 14 13 9 9 12 18 18 18 18 18 16 14 10 7 9 11 9 11 8 8
7 5 12 8 8 7 6 10 10 8 3 5 1 3 2 3 4 1 8 11 12 12 11 11 14 15 13 14 13 12 11 12 12 14 14 16 12 10 7 10 13 12 11 9
5 9 10 7 9 10 5 5 9 5 7 4 4 4 3 2 5 4 10 10 10 10 10 13 13 16 15 11 7 3 3 6 12 15 13 13 11 10 12 13 13 11 11 9
5 1 3 3 6 10 10 5 4 3 3 6 5 6 4 4 1 1 6 8 10 11 12 13 16 16 17 14 9 7 9 10 12 13 12 13 16 16 14 13 11 10 10 11
3 2 1 2 5 3 4 5 3 5 5 5 2 4 3 2 2 5 7 10 12 12 12 12 13 15 18 18 15 13 14 15 14 14 14 12 11 11 11 11 11 12 12 13
8 6 2 2 4 5 4 4 4 5 4 2 2 5 3 5 8 8 7 6 8 10 10 11 12 12 13 14 15 14 13 12 10 7 6 4 2 1 4 7 9 12 13 13
7 5 1 4 2 2 5 5 2 4 2 3 4 2 5 8 8 8 8 11 10 10 9 8 8 10 11 11 11 11 10 9 9 7 6 5 6 8 10 13 15 14 16 15
5 5 2 2 1 11 0 8 3 1 4 7 5 5 6 13 12 6 6 10 11 10 9 8 7 8 7 9 9 11 12 11 10 10 9 7 8 10 12 14 16 16 19 17
4 2 3 3 4 3 4 4 3 1 2 4 5 4 1 12 10 4 4 9 10 11 9 7 7 7 8 10 12 13 14 13 13 13 12 12 11 9 9 10 12 14 18 20
2 3 4 3 4 4 1 2 4 4 5 3 2 5 3 8 5 1 6 10 11 8 6 4 5 7 8 9 10 11 10 10 10 11 11 11 13 13 12 13 12 13 14 13
6 2 5 4 3 2 1 2 3 6 2 7 5 3 2 6 7 4 9 11 8 8 7 7 7 8 9 10 11 11 13 13 14 14 14 14 15 15 17 17 16 18 19 20
5 3 2 5 4 3 4 6 6 4 3 4 10 11 7 8 11 15 16 9 4 5 6 6 6 7 9 11 13 15 16 16 17 17 17 18 18 19 20 21 22 24 24 26
2 3 2 4 5 3 3 6 9 11 11 8 9 10 13 15 16 15 13 7 3 0 3 4 6 8 13 15 15 16 17 17 18 20 21 21 22 23 24 25 27 28 29 31
2 3 2 2 2 3 8 11 12 14 14 16 16 18 15 14 11 11 4 3 3 3 4 5 8 10 14 17 17 18 18 21 22 22 24 26 26 27 28 28 29 29 29 30
2 5 3 1 2 4 10 11 14 8 9 9 10 8 8 8 5 4 3 5 8 7 6 8 10 12 16 17 17 19 22 22 22 25 27 29 28 29 30 29 29 29 30 31
7 5 2 2 2 4 3 2 2 7 8 11 12 9 7 6 3 5 5 6 8 7 8 10 14 18 20 19 20 23 23 25 27 29 29 29 28 29 29 29 29 29 29 30
1 5 3 3 5 7 3 1 3 5 5 5 11 7 4 2 5 9 4 5 5 7 10 14 18 21 22 22 24 24 28 28 28 29 29 29 29 29 28 30 34 34 31 28
5 3 3 2 3 4 2 3 2 3 7 7 2 2 4 4 8 6 5 5 7 11 14 16 21 20 23 24 25 26 28 28 29 29 31 30 27 31 33 31 31 30 24 31
5 2 7 5 4 5 2 2 4 4 2 5 4 8 8 8 8 10 9 10 10 13 16 18 20 21 23 24 25 28 29 29 30 30 29 30 32 33 30 29 29 28 31 28
6 7 5 6 5 5 4 4 4 4 3 6 7 7 7 10 11 11 9 11 12 16 19 20 20 22 25 25 26 28 28 29 31 29 29 31 31 30 28 29 30 30 28 28
4 2 3 6 1 1 1 1 6 5 10 12 9 9 9 11 10 10 11 13 13 18 20 20 22 26 26 26 25 28 30 31 29 30 32 30 29 28 27 27 28 27 24 23
3 2 2 2 2 3 6 7 8 8 9 8 7 9 7 8 10 13 14 14 14 19 19 22 25 26 28 27 27 27 29 29 28 31 29 27 27 29 28 27 26 25 24 22
1 4 4 3 5 7 3 5 7 7 5 6 3 3 6 9 13 13 14 15 16 19 23 24 25 26 28 29 28 28 28 27 28 27 27 27 26 26 27 26 25 25 27 25
4 3 3 1 2 3 6 7 8 7 4 5 7 10 11 11 14 15 14 16 19 21 25 25 26 27 28 27 29 27 26 25 26 26 25 25 27 26 25 25 30 26 30 32

GFSCGP_925_spd_129.txt.gz
Wind_Speed
19 16 22 29 26 23 23 23 24 13 16 18 16 17 16 14 20 14 16 15 15 13 6 7 8 9 9 12 12 14 15 15 18 18 19 18 20 20 21 21 21 19 18 18
18 22 22 20 19 22 22 12 20 7 12 16 16 18 18 16 24 17 19 16 11 4 7 0 3 3 6 10 12 15 16 18 19 19 18 16 16 18 19 20 20 19 20 18
19 22 20 20 22 20 19 16 15 15 19 19 18 20 18 19 15 15 7 2 5 5 2 1 3 1 2 4 6 6 10 16 19 19 15 13 14 12 17 18 18 20 20 19
18 19 24 20 22 20 16 14 19 13 14 13 16 8 16 19 17 14 12 11 8 3 2 4 4 6 4 3 2 3 5 9 13 14 16 14 15 16 17 17 20 19 18 18
17 19 23 19 18 17 20 20 15 11 14 13 19 8 13 22 18 20 12 2 4 4 4 6 7 7 7 7 6 4 0 3 5 8 12 14 15 15 15 15 9 13 13 15
20 18 14 17 19 19 22 5 12 15 14 14 17 12 11 18 20 20 12 8 4 4 6 6 9 9 9 10 11 10 9 6 2 3 5 9 10 11 11 10 6 10 13 14
13 13 15 16 18 15 17 13 10 10 11 11 21 17 7 12 13 21 16 11 9 6 8 5 7 10 12 13 13 13 13 14 13 11 8 4 2 2 6 5 10 15 14 14
14 16 20 11 15 14 21 18 12 11 13 15 8 7 9 12 11 10 12 8 7 5 6 8 6 8 11 11 12 13 14 13 13 12 11 10 7 2 2 6 9 8 10 11
16 15 16 17 17 17 15 18 19 10 10 4 10 12 9 14 12 11 10 9 6 3 3 2 7 3 6 8 8 9 9 10 10 9 8 7 7 8 9 8 7 10 11 14
11 9 15 11 12 13 12 13 9 7 8 11 8 15 8 19 15 14 12 9 6 4 3 2 0 3 1 4 5 6 6 6 7 7 7 6 5 5 6 6 9 11 13 13
10 10 11 14 14 14 12 11 11 11 10 10 10 6 14 13 15 13 13 9 6 4 3 2 0 3 2 1 5 4 4 4 4 6 6 6 8 8 9 10 11 12 13 14
9 9 13 18 16 5 12 19 14 8 12 8 7 5 4 2 12 13 12 10 1 3 5 4 3 2 4 2 4 2 4 6 6 8 9 10 11 12 12 13 15 15 18 18
8 6 9 5 8 9 10 10 6 5 1 9 8 5 7 2 6 6 5 5 7 3 6 5 4 3 2 2 3 4 5 8 9 10 13 14 14 16 17 18 19 20 21 23
2 5 11 5 1 8 16 15 9 11 6 9 14 10 13 9 6 8 8 7 10 4 7 7 4 4 3 4 6 8 10 10 13 14 17 18 19 20 21 22 22 23 24 25
6 7 7 2 6 1 11 12 14 16 15 13 9 8 2 5 2 5 8 9 9 8 7 5 6 4 7 8 10 13 13 15 16 17 20 21 23 23 24 24 25 25 26 27
10 6 14 18 7 8 9 10 11 12 12 11 10 11 7 6 4 5 2 1 6 4 4 6 6 7 9 12 12 15 17 19 19 21 23 25 26 26 26 26 26 27 28 28
9 5 6 11 6 4 8 14 15 12 11 9 10 7 6 2 4 4 4 4 6 5 6 10 9 9 11 13 15 17 20 21 23 25 26 27 27 28 28 28 28 28 27 27
10 8 7 5 5 8 9 7 6 3 9 4 7 7 2 5 5 5 7 10 7 5 8 9 11 14 15 16 18 21 22 23 25 26 27 27 28 28 29 28 29 28 28 26
6 8 2 4 9 1 13 4 2 2 8 3 6 4 5 9 8 9 9 7 8 10 10 15 16 17 18 20 22 21 23 24 25 26 27 27 28 29 29 29 29 27 27 26
6 3 4 5 3 4 11 8 4 2 5 5 2 4 7 8 8 3 6 9 8 12 15 15 18 19 22 22 22 22 24 25 26 27 28 29 28 28 30 29 28 26 27 32
9 6 8 5 3 1 11 5 1 6 5 3 4 7 10 10 10 9 11 12 15 18 20 21 21 22 23 23 24 25 26 25 27 28 28 29 30 29 27 26 27 33 28 29
8 7 6 3 4 5 9 6 4 6 1 5 9 10 13 14 14 13 13 12 12 14 21 24 24 24 24 25 25 26 26 27 26 27 29 29 28 26 29 32 31 28 26 27
5 5 5 5 2 8 5 8 5 3 6 7 9 11 13 11 11 12 12 13 14 21 22 24 24 25 25 25 25 26 26 26 27 27 28 29 30 30 28 26 27 27 25 23
2 5 1 4 10 5 3 2 3 5 6 9 10 8 9 11 14 15 15 16 17 22 23 25 25 24 26 26 24 25 26 25 23 27 30 28 28 27 27 25 23 24 23 21
4 9 6 6 9 5 4 5 6 5 6 6 9 12 11 13 15 17 17 17 19 23 23 24 25 25 24 26 27 25 24 20 27 26 26 26 25 25 26 25 24 24 27 25
5 1 4 5 9 6 7 4 6 8 7 8 10 13 13 14 15 17 15 20 21 22 25 23 25 26 26 26 25 24 21 23 25 25 23 24 26 25 24 24 28 24 27 30

GFSCGP_925_spd_135.txt.gz
Wind_Speed
10 8 16 17 15 11 13 11 13 5 10 6 8 6 12 13 9 12 7 7 8 9 2 11 15 15 16 13 19 28 26 23 36 34 28 24 24 23 23 25 25 26 24 27
6 14 13 15 15 17 18 11 7 8 15 8 17 15 12 14 7 8 8 9 9 8 3 7 15 18 21 14 10 8 4 4 7 18 24 25 23 22 25 27 27 27 25 25
12 10 16 19 19 19 18 13 10 13 14 11 7 14 10 7 8 7 9 10 7 7 6 7 10 17 15 18 15 11 8 4 7 10 10 15 14 16 15 18 30 27 28 28
10 16 18 19 21 17 16 14 16 19 11 7 13 5 8 12 9 10 11 9 9 6 3 8 9 16 22 22 19 15 13 10 6 6 10 7 4 11 16 18 13 15 24 21
11 15 16 16 14 18 17 13 20 25 6 14 12 4 8 11 8 12 11 14 10 7 9 9 9 21 22 21 19 16 15 13 12 12 11 7 5 8 12 12 11 6 13 23
15 13 13 19 19 19 18 8 6 6 8 5 10 10 6 9 17 14 6 7 18 7 12 11 21 26 23 19 18 17 19 21 22 20 17 19 16 14 15 17 16 11 6 6
18 18 17 16 11 8 8 7 5 5 1 4 17 6 9 20 18 20 11 6 10 10 9 10 12 15 21 17 15 16 18 20 19 19 19 19 20 20 20 19 20 20 18 15
11 10 16 14 8 12 8 10 7 6 4 5 6 13 12 13 25 18 12 12 9 9 10 12 10 19 20 16 16 16 15 15 15 17 16 17 17 17 16 15 14 15 15 14
8 11 10 10 7 12 7 5 14 4 4 2 3 8 8 5 18 17 16 11 10 10 10 12 11 21 19 17 14 12 10 10 13 12 14 15 16 18 18 17 16 17 16 15
3 4 5 11 8 11 5 7 5 2 4 2 3 8 2 9 15 16 14 10 7 8 8 8 8 19 22 19 15 13 9 7 7 8 11 12 14 17 18 18 19 20 19 18
5 6 7 10 8 8 5 1 2 4 6 4 1 5 5 7 3 14 10 10 10 9 9 10 14 22 25 22 17 12 7 6 4 7 7 10 12 12 13 16 18 20 22 24
7 5 1 5 3 3 4 9 7 5 4 4 4 5 4 6 11 8 13 11 9 8 8 8 11 19 17 18 16 12 10 6 8 9 11 13 14 15 16 17 18 20 22 24
7 5 4 7 6 4 2 4 4 4 4 6 8 4 3 10 5 9 10 9 6 7 5 7 7 8 14 14 11 11 9 10 11 12 15 17 19 21 23 25 27 27 26 25
8 5 11 4 1 1 5 4 2 6 4 0 5 5 6 6 2 6 1 8 4 4 8 6 7 7 10 12 11 9 7 6 7 10 11 13 16 21 23 25 26 27 27 27
6 4 5 2 2 6 8 10 2 5 6 4 5 8 5 10 4 12 8 10 6 7 6 6 5 6 10 7 6 8 10 8 8 10 13 17 19 22 27 28 27 29 29 27
5 5 10 6 7 5 10 6 5 5 4 7 6 3 5 14 16 7 5 9 7 5 7 8 7 11 12 9 7 8 8 7 9 10 11 14 18 22 27 28 23 22 22 21
5 5 3 3 2 5 4 7 4 5 4 8 2 6 2 8 7 7 12 16 15 14 13 12 9 10 12 11 8 6 5 7 7 9 12 16 18 20 20 17 19 20 24 27
6 5 3 3 4 3 4 6 2 5 9 6 11 10 12 16 16 17 15 14 13 11 10 8 10 14 11 9 7 8 8 5 7 9 11 15 14 11 15 19 23 27 28 29
9 6 4 4 2 5 3 4 4 15 12 12 16 14 10 13 17 10 10 9 8 7 7 12 15 13 15 15 13 7 6 8 10 12 12 13 15 17 21 24 27 30 28 29
5 11 5 4 4 6 3 5 5 6 6 10 14 12 10 13 10 4 9 8 8 11 10 9 13 17 19 16 12 11 13 18 19 18 16 16 19 21 26 28 25 26 31 32
8 4 6 3 4 3 5 5 6 5 4 7 12 13 13 9 5 1 7 6 6 6 9 14 16 18 24 24 22 22 21 20 17 17 19 21 23 26 22 26 31 32 32 28
5 4 2 2 5 3 8 7 5 4 6 13 12 9 8 8 8 7 8 9 10 12 19 24 23 23 26 25 23 18 18 18 20 23 24 25 23 25 33 32 29 24 24 24
3 5 4 4 5 7 11 10 7 10 9 8 9 9 9 9 8 9 8 9 10 19 23 23 21 19 21 23 22 18 20 22 22 25 23 24 31 32 26 24 24 23 22 21
7 5 5 9 8 11 10 12 13 12 11 9 10 9 9 8 9 9 8 11 15 19 20 21 22 20 20 23 21 22 23 22 22 21 25 28 26 25 22 23 21 22 21 20
3 5 6 11 13 15 14 13 11 11 14 12 9 10 9 10 8 8 11 11 16 18 20 20 19 17 18 21 20 20 19 19 21 24 25 22 20 22 23 22 21 22 25 23
3 1 6 3 6 12 9 9 13 13 11 8 9 10 10 12 10 13 9 15 16 16 17 16 16 15 15 18 18 20 19 21 26 22 20 21 22 21 22 22 25 23 25 27

GFSCGP_925_spd_138.txt.gz
Wind_Speed
6 5 14 11 6 2 1 4 9 3 9 6 7 6 6 8 2 6 7 6 6 4 3 19 25 25 28 30 31 35 36 43 32 21 25 31 30 30 30 31 27 24 23 24
5 10 7 7 8 8 8 6 7 7 7 6 6 8 8 9 7 7 8 7 7 4 5 5 25 27 24 28 26 30 34 32 29 34 33 25 29 28 28 27 26 26 27 27
6 4 10 9 9 11 10 8 6 4 7 4 7 5 7 5 5 5 8 6 5 9 8 8 10 24 29 24 20 14 13 16 11 11 19 28 23 25 20 20 20 24 31 27
5 9 15 13 13 12 13 6 11 8 4 5 7 5 6 7 11 8 11 8 8 7 2 6 10 17 26 27 24 21 17 12 6 4 11 10 11 4 4 3 4 9 12 23
9 12 13 13 15 14 9 8 9 9 7 4 2 3 7 10 13 12 13 9 8 9 9 10 10 19 23 25 25 24 21 17 14 13 11 12 13 15 14 14 9 4 3 10
9 3 9 14 11 13 14 4 4 2 5 6 9 8 6 6 18 16 7 9 10 8 7 11 18 21 24 26 26 23 24 22 20 21 21 20 20 20 22 17 13 12 11 5
10 16 9 6 7 5 4 6 1 1 3 5 11 5 12 8 13 15 14 10 8 14 10 12 12 15 21 27 26 23 21 19 18 21 22 22 22 22 22 19 17 16 17 20
7 6 14 10 10 10 7 8 5 5 2 7 2 7 13 10 14 7 9 8 15 13 12 12 11 17 23 26 21 19 16 15 15 17 18 18 19 20 19 18 17 18 17 17
9 8 5 13 13 12 5 5 9 6 1 2 3 5 8 13 15 12 13 15 15 15 12 12 10 20 25 23 19 16 14 13 12 13 14 16 17 18 18 18 18 18 18 20
4 4 4 5 8 6 10 7 5 2 3 4 1 4 5 10 17 8 18 18 11 8 9 8 9 20 24 21 19 15 13 12 10 10 12 14 15 17 18 20 22 23 24 25
3 4 6 4 2 8 3 4 6 4 4 5 3 5 4 7 13 5 5 13 11 10 11 11 8 16 23 22 20 17 14 13 11 11 11 10 11 13 15 18 21 23 26 27
7 4 4 5 5 4 6 8 7 5 3 2 2 5 4 6 10 7 4 10 7 9 8 8 10 18 19 18 16 14 12 18 14 11 8 7 8 11 14 18 20 22 24 26
5 1 3 8 6 6 6 3 5 5 4 4 4 3 1 5 6 8 9 7 8 8 10 9 7 10 19 20 17 16 16 16 12 8 6 5 6 8 11 14 18 20 22 23
10 4 8 7 4 2 4 7 5 5 4 6 6 9 9 14 9 6 10 11 5 8 7 6 6 8 15 16 17 15 14 10 7 5 4 5 7 10 14 16 18 18 16 16
6 4 3 9 9 3 2 5 5 3 7 4 7 12 10 9 9 10 3 10 17 6 10 6 6 6 9 10 11 11 9 7 5 5 6 7 9 12 14 13 11 11 15 16
3 3 4 6 7 7 3 3 4 4 8 7 8 4 4 5 11 10 4 5 15 10 14 11 8 9 9 8 8 8 5 3 5 7 8 11 14 13 11 12 14 17 20 24
4 6 4 2 1 4 4 4 3 4 2 8 5 8 11 8 9 9 9 11 11 11 8 8 7 7 8 6 4 2 2 4 4 7 10 11 9 10 12 16 20 25 28 32
6 5 3 3 2 5 5 3 6 14 13 10 18 18 17 14 12 8 5 9 9 8 7 5 4 6 12 11 9 7 9 10 12 15 15 16 17 19 21 24 28 31 33 35
10 5 4 4 3 1 2 3 6 16 9 9 18 19 19 16 18 11 7 7 6 6 4 7 17 21 24 22 16 17 19 18 18 19 19 20 22 25 29 30 31 32 33 37
8 8 6 3 5 4 5 5 12 11 6 6 13 10 6 3 9 1 2 8 11 19 21 21 23 25 28 24 21 21 20 19 20 20 20 22 25 27 27 26 33 33 29 26
4 3 6 4 3 2 1 5 1 6 6 5 12 8 10 13 5 4 10 12 20 20 22 21 25 23 21 20 20 21 19 18 18 21 24 25 27 29 28 30 29 26 26 23
4 5 3 4 3 3 3 5 7 9 5 10 9 9 14 12 10 12 12 12 16 17 20 20 19 18 19 20 21 17 17 18 18 23 23 24 28 30 28 26 23 21 21 21
3 5 5 3 3 3 10 18 11 13 14 8 11 9 13 11 12 11 10 10 13 15 15 18 17 14 16 17 18 18 18 17 21 23 23 27 29 26 23 21 21 20 18 18
4 2 6 6 6 14 16 15 14 15 14 11 11 12 14 13 11 11 10 8 11 14 14 17 18 16 15 18 18 17 20 21 24 25 27 28 24 22 21 20 18 19 18 18
1 4 8 13 12 15 13 13 13 14 15 16 14 13 13 15 11 10 8 8 13 15 18 19 19 17 17 21 20 20 23 23 25 25 24 21 19 20 21 20 20 20 23 21
3 11 5 4 6 12 7 7 11 14 12 12 15 14 13 16 10 12 8 13 14 15 17 17 18 18 19 21 22 23 24 24 24 21 19 20 21 20 20 20 26 23 22 24

GFSCGP_925_spd_141.txt.gz
Wind_Speed
7 4 16 10 5 0 5 6 3 3 7 4 6 5 7 6 5 8 6 5 6 6 6 14 19 23 26 26 26 29 28 29 30 28 27 15 18 24 28 34 28 24 23 26
5 9 7 6 7 5 1 4 5 2 5 7 5 7 8 8 5 6 8 8 6 3 6 8 16 23 28 31 29 29 29 30 33 39 35 24 27 23 26 29 27 27 28 28
7 5 10 10 8 9 4 5 2 2 4 2 6 5 3 6 5 2 5 2 5 8 7 5 7 19 25 26 29 29 28 24 26 29 27 31 28 25 26 24 24 23 27 30
4 7 16 6 10 7 5 7 5 4 2 5 6 6 5 6 9 7 9 8 7 8 6 5 6 8 12 15 20 19 15 11 9 10 13 9 1 1 4 5 6 10 14 17
8 12 11 11 6 8 5 6 6 5 4 3 3 3 7 0 10 15 9 10 10 8 9 11 7 18 21 20 20 20 19 15 12 11 12 13 16 13 12 15 15 15 15 12
7 5 8 9 7 9 7 4 1 3 4 2 6 5 4 6 7 8 7 8 7 8 9 12 12 17 22 24 25 24 23 22 21 21 20 21 22 20 21 21 22 21 22 24
4 5 4 5 5 4 5 6 1 1 1 6 4 1 7 9 8 10 12 11 9 13 15 13 14 16 20 28 29 29 28 25 24 25 25 23 23 22 22 21 21 23 24 25
5 2 8 5 7 7 6 8 5 4 4 2 2 6 6 0 3 7 9 7 11 16 17 17 13 19 23 30 28 29 30 28 24 22 21 20 21 20 19 19 20 21 22 23
5 3 1 7 5 10 5 5 9 5 4 3 2 7 1 7 11 10 4 12 16 18 17 16 14 20 24 27 27 27 26 23 20 19 18 17 16 15 14 13 14 15 17 20
2 2 6 5 6 2 7 7 5 3 6 3 4 4 4 7 9 10 1 9 14 16 13 12 12 19 24 28 25 23 21 21 18 16 13 12 10 9 9 10 12 14 16 17
3 3 5 5 6 10 2 3 5 4 5 6 2 5 4 2 5 9 3 4 14 17 15 13 9 18 27 26 24 23 22 21 18 16 14 10 7 5 4 7 9 11 13 13
7 4 3 5 3 6 8 9 7 5 4 3 4 5 3 3 4 7 2 6 5 7 8 7 10 19 22 24 23 22 20 19 17 14 12 9 6 4 4 6 8 9 12 13
6 2 2 5 5 4 4 2 5 6 4 5 5 5 1 4 9 7 8 9 6 6 7 6 6 10 18 20 16 15 16 16 13 9 6 5 2 2 4 5 6 10 11 10
8 3 6 6 5 3 3 4 3 7 4 5 5 3 5 8 8 5 5 8 9 7 3 2 3 4 8 11 13 15 14 10 6 3 2 1 4 5 6 6 6 6 7 10
7 5 2 5 4 5 3 3 2 4 6 6 8 8 7 5 13 5 2 9 14 9 8 7 6 5 10 11 9 9 8 6 4 4 4 5 5 5 4 4 5 8 11 14
3 4 4 3 1 3 6 6 6 4 5 6 7 2 2 6 5 5 4 11 15 12 10 8 7 9 12 11 11 8 7 6 2 4 6 6 7 6 8 10 14 18 22 25
3 6 4 1 3 3 4 3 3 6 5 4 5 6 7 8 7 4 6 10 16 9 6 7 8 13 13 9 6 8 7 4 8 10 10 11 13 15 18 21 24 27 29 32
6 5 3 3 3 1 3 11 18 14 8 6 12 9 10 11 9 11 10 13 11 7 5 6 12 17 19 19 18 15 14 14 13 14 15 17 21 23 26 28 30 32 34 33
4 6 4 5 3 3 3 4 6 5 5 7 14 16 17 15 17 10 8 11 10 8 9 15 20 21 22 22 18 17 17 16 15 16 18 20 22 24 26 27 30 32 32 31
4 6 5 3 5 5 4 1 14 7 3 3 11 17 17 4 7 2 6 10 12 16 16 18 19 19 20 19 18 19 19 17 16 16 18 21 22 25 27 28 28 29 25 25
3 4 5 4 4 2 4 2 2 4 7 6 6 6 7 5 4 7 7 12 15 16 16 16 18 19 16 17 19 19 18 16 15 17 20 22 26 27 24 24 24 20 19 20
4 5 2 3 4 2 2 2 3 8 7 11 11 13 16 13 11 9 9 9 12 14 17 18 16 14 14 16 18 17 16 18 20 21 23 24 25 23 21 21 19 20 18 17
3 4 6 2 1 4 1 10 11 13 17 9 15 9 15 12 9 8 8 8 12 13 14 13 11 10 11 17 15 17 18 20 20 22 24 25 24 23 22 21 19 18 17 16
3 2 5 4 6 11 14 15 14 14 14 11 11 11 12 13 9 8 6 6 8 10 11 12 12 12 12 16 16 17 19 21 21 23 23 23 24 22 21 19 17 17 17 16
1 4 8 10 8 16 10 12 16 15 15 15 12 11 12 12 7 6 5 6 8 10 11 14 14 12 14 17 18 19 21 23 21 18 20 20 19 20 21 19 19 19 20 19
2 10 6 5 13 10 6 7 14 17 15 14 17 12 10 12 9 10 7 10 11 13 14 14 15 15 18 19 19 22 23 20 19 20 19 19 20 20 20 21 22 18 19 22

GFSCGP_925_spd_144.txt.gz
Wind_Speed
4 4 12 8 4 3 8 10 6 4 2 5 6 5 5 7 2 4 7 5 6 7 6 2 8 13 19 23 24 20 20 21 18 20 17 11 5 10 13 14 17 23 23 19
4 7 6 8 6 2 5 8 5 1 5 3 5 6 7 8 6 8 8 8 8 5 6 4 7 11 16 18 20 19 16 14 15 16 17 14 17 19 21 20 17 15 14 16
6 5 10 7 4 4 2 7 6 4 4 3 6 4 5 5 4 7 7 6 5 9 9 6 6 12 14 17 15 12 10 12 12 13 14 15 12 14 13 13 9 10 8 11
5 4 13 9 7 6 4 5 5 8 5 4 3 4 5 6 8 6 7 8 8 9 5 5 7 8 16 15 15 11 7 8 6 4 2 5 12 13 16 19 21 22 19 16
6 8 12 8 7 8 5 6 6 3 4 4 1 3 6 3 7 9 8 10 9 9 8 9 6 8 5 5 7 10 13 14 15 16 17 20 22 21 20 23 25 27 27 27
5 4 8 8 10 11 6 6 6 5 3 1 6 5 4 5 6 5 8 6 8 10 8 7 12 16 16 18 23 24 24 24 24 25 24 25 25 23 24 23 24 24 24 23
3 4 4 9 9 4 6 7 2 1 1 5 4 4 7 6 3 5 8 2 9 7 9 13 13 15 21 22 23 26 28 27 25 26 26 24 21 20 20 19 19 21 21 21
5 3 8 6 9 8 6 8 5 4 4 2 4 5 6 2 2 4 5 6 9 11 13 14 13 18 25 28 24 27 27 26 23 22 21 19 17 16 16 15 14 14 14 16
4 2 3 9 5 8 4 5 8 6 3 4 3 5 5 4 5 7 8 4 10 14 15 15 11 20 24 28 29 29 29 27 24 21 18 15 12 11 11 10 11 13 13 15
5 6 7 4 7 2 9 6 4 3 4 3 4 3 5 3 5 8 8 7 5 10 14 12 12 19 24 29 30 28 28 27 25 22 17 14 11 9 7 6 7 10 12 16
2 4 1 6 6 8 3 3 5 5 4 5 1 5 5 6 3 7 9 6 7 10 12 13 9 14 20 27 28 26 25 24 23 19 17 14 11 8 5 4 5 7 10 13
3 4 3 4 0 5 7 9 7 5 4 0 4 6 3 5 6 5 5 7 8 8 6 8 11 17 20 23 24 24 22 21 18 15 14 12 8 5 2 2 3 6 7 7
6 1 3 5 5 4 4 4 5 6 3 5 6 5 2 3 3 6 1 6 9 9 9 7 7 9 13 18 18 17 15 14 12 11 9 7 3 1 2 3 4 4 4 6
8 3 6 5 6 4 4 4 4 6 4 5 6 4 4 2 4 7 6 4 9 9 9 7 6 9 13 13 11 11 12 10 7 5 5 4 3 2 3 3 3 5 8 11
5 5 3 2 2 3 2 8 8 6 5 7 7 9 8 9 8 5 7 7 13 12 9 7 6 5 11 10 11 11 9 6 5 6 7 7 5 4 4 6 9 12 15 19
3 2 3 5 3 4 5 6 9 4 4 1 6 2 3 6 9 7 14 13 16 14 14 12 10 13 14 14 13 13 12 10 7 10 10 7 7 9 12 14 18 20 24 27
4 6 3 3 2 2 4 4 5 5 5 4 3 2 6 5 11 7 11 13 13 13 12 14 12 15 16 19 16 17 13 11 11 10 9 11 14 17 20 23 26 29 31 33
6 6 3 4 3 2 3 4 6 13 4 1 6 7 10 13 12 13 8 11 10 9 11 12 16 18 22 20 18 13 14 13 12 13 16 18 21 23 26 28 28 31 30 29
3 5 4 5 3 1 2 3 4 3 2 2 9 14 16 17 18 11 11 11 12 11 13 17 22 20 19 19 15 14 15 16 18 17 17 19 21 22 25 27 28 27 26 27
6 4 4 3 5 7 6 3 5 5 2 4 9 15 17 4 4 2 5 10 12 17 19 18 18 17 17 16 16 17 18 17 15 15 18 21 21 22 24 25 25 25 20 18
3 3 5 3 3 5 3 4 3 6 5 9 8 5 4 5 5 8 7 11 17 17 16 15 16 15 14 15 17 18 18 15 16 17 18 21 22 22 21 22 22 20 19 20
5 5 2 3 4 2 4 1 6 5 7 10 6 11 18 17 14 11 9 10 13 14 15 15 14 11 13 17 17 14 14 18 20 20 22 22 20 19 18 19 19 18 16 16
2 4 6 3 3 4 3 0 4 10 14 7 14 11 18 15 12 10 9 9 12 13 12 12 11 10 14 17 17 17 20 21 20 19 17 16 17 19 19 17 15 15 13 13
2 3 4 3 6 5 7 10 10 12 15 14 14 13 13 16 11 10 8 7 9 11 12 13 14 15 15 17 15 16 18 17 15 15 16 18 17 16 15 13 13 13 14 15
1 3 5 5 4 11 11 9 15 16 17 17 12 11 12 13 9 8 7 8 11 11 10 10 10 11 11 13 13 14 15 15 14 16 16 15 14 15 16 14 17 16 15 16
1 5 4 4 10 8 4 5 14 17 13 13 16 11 11 13 10 11 9 12 11 10 9 11 12 10 12 14 15 17 20 18 17 16 15 16 16 17 18 18 18 15 16 19

GFSCGP_925_spd_147.txt.gz
Wind_Speed
12 10 20 26 21 11 19 18 11 13 6 12 14 11 6 11 8 10 8 6 7 7 4 2 3 7 9 9 10 8 8 8 9 6 4 4 4 1 7 9 8 10 11 10
10 15 14 12 14 9 14 19 14 11 10 11 10 14 5 9 12 12 12 10 10 8 7 4 3 5 5 5 6 6 6 7 9 7 7 5 4 2 2 2 3 3 2 1
15 12 10 14 13 11 11 19 22 12 9 3 10 9 9 7 7 8 9 8 7 10 8 6 7 6 6 7 7 7 7 5 4 5 3 3 7 7 7 11 11 13 13 13
8 9 18 16 13 10 9 10 17 19 12 11 8 12 9 12 12 11 12 9 10 9 8 7 7 6 5 6 6 5 5 5 5 8 10 12 12 12 11 13 15 19 24 21
6 15 20 21 21 12 5 6 13 16 15 9 10 8 14 6 17 17 13 13 14 12 12 11 9 4 6 8 10 11 13 15 16 18 19 19 21 18 15 16 20 22 21 20
4 10 14 12 16 16 7 6 8 6 6 11 14 14 13 15 13 10 11 12 12 14 13 9 5 7 11 14 16 17 20 19 20 22 23 25 25 19 16 15 13 12 14 16
5 10 7 10 19 17 14 14 7 8 7 6 8 8 10 8 9 11 12 7 9 14 14 12 11 13 16 19 20 20 22 21 23 26 25 24 22 18 16 14 12 12 12 12
8 6 13 15 20 12 17 17 6 7 9 8 5 9 6 10 3 4 7 8 8 13 15 17 16 17 20 22 22 22 21 22 21 23 23 20 18 15 14 13 10 9 8 9
5 4 15 19 13 15 19 12 5 5 2 7 6 3 4 4 7 5 6 7 11 14 16 17 17 21 22 23 23 23 22 20 19 21 19 17 15 13 12 10 8 6 7 6
5 8 13 17 14 5 16 15 8 2 8 6 5 4 6 11 11 7 6 6 7 11 14 16 16 21 20 21 20 18 16 17 16 14 10 11 11 9 8 6 5 5 7 9
2 4 10 13 10 14 13 12 5 3 1 7 4 3 5 7 4 5 8 8 5 11 14 15 16 19 18 18 17 16 14 13 11 8 8 8 7 5 5 4 4 6 8 9
1 5 12 18 2 15 13 15 9 9 8 1 1 2 2 4 2 5 9 7 4 10 15 16 18 20 19 19 17 14 10 10 8 7 5 4 3 2 2 2 4 7 7 8
7 3 10 10 6 6 13 8 9 7 2 8 5 2 2 3 1 4 6 2 7 11 14 16 16 17 18 17 14 12 10 8 6 4 4 3 2 2 3 4 6 7 8 10
6 3 4 8 9 8 8 12 13 13 4 6 8 6 7 7 3 2 1 4 8 12 14 13 13 13 14 12 11 10 8 7 6 5 4 4 3 3 4 4 6 8 11 13
1 3 4 5 3 3 8 17 18 17 14 9 12 10 7 8 4 4 7 10 12 13 14 13 12 11 13 13 13 12 10 8 7 7 6 5 5 5 6 8 10 12 15 16
0 3 2 4 4 4 4 9 11 10 8 6 4 4 5 12 10 10 12 14 14 14 14 16 15 17 15 14 12 12 11 10 7 7 6 5 7 8 10 12 14 16 18 20
4 5 3 4 1 7 6 8 10 6 5 5 6 7 15 14 14 11 11 17 15 15 15 15 14 17 16 15 12 12 10 9 8 7 7 8 11 13 14 16 18 19 21 22
8 5 2 4 4 6 3 1 6 5 5 3 8 15 15 16 14 14 12 15 16 15 16 14 16 16 14 12 13 10 9 9 9 8 9 11 15 17 18 19 19 19 19 19
1 5 4 5 4 2 1 5 7 6 3 4 11 17 18 18 16 13 11 13 14 14 17 17 16 13 13 12 10 8 7 9 9 11 13 15 17 18 18 18 19 18 18 18
5 5 4 4 5 7 5 7 3 3 4 11 15 18 23 17 9 5 8 12 14 17 16 15 12 10 10 10 8 8 11 11 12 14 16 16 16 16 17 17 17 16 16 16
4 3 6 4 3 2 2 6 5 6 1 15 18 20 15 7 6 17 13 12 14 13 13 11 10 10 10 9 10 12 12 14 15 15 15 15 15 15 14 15 15 15 15 15
6 7 3 3 3 5 3 5 7 6 14 16 16 13 17 21 19 16 14 12 12 12 10 8 7 8 9 12 14 14 13 13 13 14 14 14 14 13 13 15 14 14 15 16
4 2 6 2 2 4 3 3 0 9 17 12 17 17 24 21 17 15 12 10 11 10 9 9 11 12 14 14 13 12 13 14 15 15 15 14 14 14 14 14 15 15 14 14
3 2 4 6 5 6 6 9 12 14 17 15 18 19 18 22 16 14 11 9 10 10 12 11 12 13 13 14 13 13 14 15 14 15 15 15 14 15 14 14 13 14 14 14
1 7 8 5 7 12 9 10 16 20 20 21 18 17 17 18 14 13 11 11 11 11 11 11 12 11 11 12 13 13 14 14 14 14 13 14 14 14 14 13 13 13 13 14
1 5 4 4 12 8 11 12 18 20 19 18 20 17 14 16 14 14 12 11 10 10 9 10 9 9 9 10 11 13 14 14 14 13 12 14 14 13 12 13 13 11 13 14

GFSCGP_925_spd_150.txt.gz
Wind_Speed
22 17 22 29 26 25 25 25 29 25 18 27 22 18 13 18 14 15 15 14 15 14 11 9 8 10 12 14 13 13 12 12 11 10 9 7 7 5 3 1 3 4 4 6
16 19 22 23 22 24 25 25 19 21 15 20 23 21 14 23 17 14 14 13 13 11 10 9 10 10 11 13 14 13 12 12 11 9 7 5 5 3 2 2 4 5 5 4
20 18 19 22 19 14 18 23 16 21 17 19 22 20 20 14 21 23 18 12 9 11 10 10 11 11 12 13 14 15 14 13 11 9 8 8 8 6 7 6 8 10 10 9
16 18 10 17 22 18 16 19 18 19 21 16 19 16 22 20 17 18 18 15 15 11 8 6 8 11 11 13 14 14 14 12 11 12 10 12 9 9 9 9 10 10 11 11
11 18 17 20 21 18 10 15 19 15 18 16 20 14 24 21 19 18 19 18 12 10 9 10 8 8 9 11 13 12 13 13 14 14 14 14 14 14 12 12 12 10 9 9
10 17 22 16 16 12 12 20 17 17 11 13 15 18 17 23 24 22 19 16 15 14 12 10 8 10 10 12 15 16 17 17 17 16 15 16 17 15 14 11 9 7 6 7
13 18 15 20 19 13 13 19 11 14 13 11 18 14 14 21 22 24 22 19 17 14 14 12 11 13 14 15 18 20 21 20 19 20 20 19 17 16 15 10 9 7 7 7
16 15 14 19 24 20 21 21 15 19 15 12 12 11 9 9 2 11 15 17 15 14 14 16 16 16 17 18 19 21 22 23 22 22 20 18 17 14 13 10 8 6 6 6
9 11 14 21 20 17 23 16 4 2 16 14 10 5 3 6 13 12 13 14 13 14 13 15 18 20 20 22 21 22 23 23 21 20 17 15 13 10 10 8 5 3 3 4
4 18 14 17 19 20 22 18 8 6 10 10 12 15 6 15 15 16 16 15 14 12 13 14 16 19 20 21 21 21 21 21 20 17 14 13 11 9 6 4 3 2 2 4
7 13 14 19 14 22 15 16 13 6 3 7 7 9 7 13 11 14 14 8 7 11 13 14 14 21 21 22 22 21 20 20 17 14 13 11 8 5 3 1 2 3 4 6
1 9 15 19 14 17 14 16 14 6 8 3 1 8 5 5 7 5 6 4 3 7 11 15 16 21 23 23 23 20 18 16 14 12 11 8 6 3 1 3 5 7 8 9
5 12 15 16 10 13 17 18 16 11 7 8 5 7 7 7 6 4 1 1 4 6 11 14 17 18 20 21 21 17 17 14 12 10 8 6 4 1 3 5 7 9 11 13
6 8 11 9 15 15 16 16 17 12 8 10 8 12 10 9 6 3 2 3 5 6 11 13 14 17 20 18 17 14 13 10 8 7 5 4 3 3 5 7 9 12 15 17
4 9 8 8 17 18 18 18 17 16 13 9 7 7 2 9 5 3 4 5 8 9 8 10 13 13 16 15 15 13 11 9 6 5 4 4 3 5 7 10 12 14 17 19
5 4 8 10 11 13 14 19 19 19 15 11 7 2 6 11 9 9 9 13 11 11 11 11 16 18 17 16 15 13 11 9 6 5 3 4 6 9 11 14 16 18 21 22
7 5 6 8 9 12 11 12 14 16 15 11 10 5 15 12 11 11 14 14 12 14 13 15 14 16 17 16 13 13 10 7 7 6 7 9 11 13 15 16 19 20 22 21
9 6 3 7 7 12 8 2 3 9 7 3 3 14 16 15 15 14 13 15 15 13 12 12 16 18 16 14 12 10 9 8 7 7 9 11 14 16 17 18 19 19 19 19
6 9 3 5 9 3 7 5 6 9 8 3 12 17 19 19 21 15 12 14 14 12 15 15 16 14 13 13 11 8 7 7 8 10 13 14 15 17 17 17 18 17 17 17
7 8 7 6 9 7 6 9 4 2 8 13 15 19 21 20 9 8 13 14 15 17 14 13 13 10 11 13 10 10 10 11 12 13 14 15 15 15 15 15 16 16 16 16
9 10 11 9 8 5 5 8 6 8 3 13 16 18 19 8 6 19 15 14 17 16 14 11 10 13 13 11 9 8 9 10 12 13 13 13 13 14 13 14 15 15 15 15
12 9 8 9 10 9 7 8 8 6 10 13 15 17 17 19 21 19 16 14 14 13 11 9 10 11 9 9 8 7 8 10 11 12 12 12 13 13 13 13 14 14 14 15
8 5 8 5 4 5 2 5 6 6 13 14 16 15 19 21 20 18 15 13 12 11 10 9 9 9 8 8 9 9 10 11 12 12 12 12 13 12 13 13 14 13 13 13
4 4 4 9 5 7 6 7 10 12 15 15 17 19 19 21 18 16 14 12 12 10 9 8 9 9 9 9 10 10 11 12 12 12 12 13 13 14 12 12 12 13 13 14
1 8 8 5 7 10 8 11 15 18 19 20 18 19 19 19 16 14 12 12 12 11 9 9 9 9 9 9 10 11 12 13 13 13 13 14 13 13 13 13 13 13 12 14
5 5 5 4 16 3 15 15 18 20 21 20 22 20 17 17 15 16 12 13 12 11 9 9 9 9 10 10 11 13 13 14 14 14 14 14 14 13 14 14 14 13 15 13